Location: Churchill Northern Studies Centre
(58.7378°N, 93.8201°W)
Time: 03:35:36
(UTC-06:00)

N. Korean satellite - Pass Details

Date: 16 October 2017
Orbit: 461 x 513 km, 97.2° (Epoch: 10 December)

Event Time Altitude Azimuth Distance (km) Brightness Sun altitude
Rises 06:58:33 0° 28° (NNE) 2,506 10.5 -8.0°
Reaches altitude 10° 07:01:34 10° 57° (ENE) 1,624 10.1 -7.6°
Maximum altitude 07:03:15 13° 86° (E) 1,446 10.5 -7.4°
Drops below altitude 10° 07:04:56 10° 115° (ESE) 1,621 10.6 -7.2°
Sets 07:07:56 0° 145° (SE) 2,496 10.8 -6.8°
